Pope Field Airport, NC

7:11 PM EDT on May 26, 2017 (GMT -0400)
Pope Field Airport

Weather History for KPOB - May, 2013

Change the Weather History Date:

Thursday, May 2, 2013

  Actual Average Record
Temperature  
Mean Temperature 62 °F -  
Max Temperature 67 °F 78 °F 95 °F (2002)
Min Temperature 57 °F 55 °F 44 °F (1980)
Degree Days  
Heating Degree Days 4    
Growing Degree Days 12 (Base 50)    
Moisture  
Dew Point 57 °F    
Average Humidity 87    
Maximum Humidity 100    
Minimum Humidity 73    
Precipitation  
Precipitation 0.00 in - - ()
Sea Level Pressure  
Sea Level Pressure 30.27 in    
Wind  
Wind Speed 10 mph (ENE)    
Max Wind Speed 14 mph    
Max Gust Speed 20 mph    
Visibility 10 miles    
Events Rain    
Averages and records for this station are not official NWS values.
T = Trace of Precipitation, MM = Missing Value Source: NWS Daily Summary

Daily Weather History Graph

Daily Weather History Graph

Search for Another Location

Airport or City:

Trip Planner

Search our weather history database for the weather conditions in past years. The results will help you decide how hot, cold, wet, or windy it might be!

Date:

Astronomy

May. 02, 2013 Rise Set
Actual Time 6:23 AM EDT 8:02 PM EDT
Civil Twilight 5:56 AM EDT 8:30 PM EDT
Nautical Twilight 5:23 AM EDT 9:02 PM EDT
Astronomical Twilight 4:49 AM EDT 9:37 PM EDT
Moon 1:53 AM EDT (5/2) 1:06 PM EDT (5/2)
Length of Visible Light 14h 33m
Length of Day
13h 39m
Waning Gibbous, 48% of the Moon is Illuminated
May 2
Waning Gibbous
May 9
New
May 18
First Quarter
May 25
Full
May 31
Last Quarter

Hourly Weather History & Observations

Time (EDT) Temp. Dew Point Humidity Pressure Visibility Wind Dir Wind Speed Gust Speed Precip Events Conditions
12:03 AM 60.8 °F 59.0 °F 94% 30.27 in 5.0 mi ENE 10.4 mph - N/A Rain Light Rain
12:08 AM 59.0 °F 59.0 °F 100% 30.28 in 6.0 mi ENE 10.4 mph - N/A Rain Light Rain
12:09 AM 59.0 °F 59.0 °F 100% 30.28 in 7.0 mi ENE 11.5 mph - N/A   Overcast
12:14 AM 60.8 °F 59.0 °F 94% 30.27 in 10.0 mi ENE 11.5 mph - N/A   Overcast
12:39 AM 60.8 °F 59.0 °F 94% 30.28 in 10.0 mi East 9.2 mph - N/A   Overcast
12:58 AM 59.9 °F 58.3 °F 94% 30.28 in 10.0 mi ENE 8.1 mph - 0.00 in   Overcast
1:28 AM 59.0 °F 59.0 °F 100% 30.28 in 10.0 mi ENE 9.2 mph - N/A   Overcast
1:58 AM 59.7 °F 57.6 °F 93% 30.28 in 10.0 mi ENE 12.7 mph - N/A   Overcast
2:13 AM 59.0 °F 57.2 °F 94% 30.27 in 10.0 mi ENE 12.7 mph - N/A   Overcast
2:56 AM 59.0 °F 57.2 °F 94% 30.27 in 10.0 mi East 9.2 mph - N/A   Overcast
3:58 AM 59.5 °F 56.7 °F 90% 30.28 in 10.0 mi ENE 6.9 mph - N/A   Overcast
4:58 AM 59.2 °F 56.3 °F 90% 30.27 in 10.0 mi ENE 9.2 mph - N/A   Overcast
5:08 AM 59.0 °F 57.2 °F 94% 30.26 in 10.0 mi ENE 11.5 mph - N/A   Overcast
5:58 AM 58.6 °F 56.1 °F 91% 30.27 in 10.0 mi ENE 10.4 mph - N/A   Overcast
6:56 AM 59.0 °F 55.4 °F 88% 30.27 in 10.0 mi ENE 12.7 mph - N/A   Overcast
6:58 AM 59.0 °F 55.4 °F 88% 30.28 in 10.0 mi ENE 12.7 mph - N/A   Overcast
7:58 AM 58.3 °F 55.9 °F 92% 30.29 in 10.0 mi ENE 13.8 mph - N/A   Overcast
8:58 AM 58.8 °F 55.9 °F 90% 30.30 in 10.0 mi ENE 13.8 mph - N/A   Overcast
9:08 AM 59.0 °F 55.4 °F 88% 30.29 in 10.0 mi East 11.5 mph - N/A   Overcast
9:58 AM 59.7 °F 56.1 °F 88% 30.31 in 10.0 mi ENE 11.5 mph - N/A   Overcast
10:18 AM 60.8 °F 55.4 °F 82% 30.30 in 10.0 mi ENE 13.8 mph - N/A   Overcast
10:58 AM 60.8 °F 56.3 °F 85% 30.31 in 10.0 mi East 9.2 mph - N/A   Overcast
11:58 AM 62.6 °F 57.6 °F 84% 30.31 in 10.0 mi ENE 13.8 mph 19.6 mph N/A   Overcast
12:58 PM 64.4 °F 57.2 °F 77% 30.31 in 10.0 mi ENE 11.5 mph - N/A   Overcast
1:38 PM 66.2 °F 57.2 °F 73% 30.28 in 10.0 mi East 10.4 mph - N/A   Overcast
1:58 PM 66.0 °F 57.7 °F 75% 30.29 in 10.0 mi ENE 12.7 mph - N/A   Overcast
3:58 PM 66.0 °F 57.7 °F 75% 30.27 in 10.0 mi East 13.8 mph - N/A   Overcast
4:26 PM 64.4 °F 59.0 °F 83% 30.26 in 10.0 mi ENE 9.2 mph 17.3 mph N/A Rain Light Rain
4:31 PM 64.4 °F 59.0 °F 83% 30.26 in 8.0 mi ENE 12.7 mph - N/A Rain Light Rain
4:35 PM 62.6 °F 59.0 °F 88% 30.26 in 6.0 mi ENE 11.5 mph - N/A   Overcast
4:40 PM 62.6 °F 59.0 °F 88% 30.26 in 6.0 mi East 8.1 mph - N/A   Overcast
4:45 PM 62.6 °F 59.0 °F 88% 30.25 in 8.0 mi East 6.9 mph - N/A   Overcast
4:50 PM 62.6 °F 59.0 °F 88% 30.25 in 10.0 mi East 6.9 mph - N/A   Overcast
4:58 PM 62.6 °F 59.0 °F 88% 30.26 in 10.0 mi ENE 6.9 mph - 0.00 in   Overcast
5:03 PM 62.6 °F 59.0 °F 88% 30.25 in 8.0 mi ENE 10.4 mph - N/A   Overcast
5:18 PM 62.6 °F 59.0 °F 88% 30.25 in 10.0 mi ENE 12.7 mph - N/A   Overcast
5:23 PM 62.6 °F 59.0 °F 88% 30.25 in 10.0 mi ENE 11.5 mph - N/A   Overcast
5:28 PM 62.6 °F 59.0 °F 88% 30.25 in 10.0 mi ENE 9.2 mph - N/A   Overcast
5:38 PM 64.4 °F 59.0 °F 83% 30.25 in 10.0 mi NE 8.1 mph - N/A   Overcast
5:53 PM 64.4 °F 59.0 °F 83% 30.24 in 10.0 mi NE 9.2 mph - N/A   Overcast
5:58 PM 65.1 °F 58.3 °F 78% 30.25 in 10.0 mi NE 10.4 mph - N/A   Overcast
6:58 PM 63.7 °F 57.0 °F 79% 30.24 in 10.0 mi ENE 13.8 mph - N/A   Overcast
7:03 PM 64.4 °F 57.2 °F 77% 30.23 in 10.0 mi ENE 13.8 mph - N/A   Overcast
7:08 PM 62.6 °F 57.2 °F 82% 30.23 in 10.0 mi ENE 13.8 mph - N/A   Overcast
7:33 PM 62.6 °F 57.2 °F 82% 30.23 in 10.0 mi ENE 12.7 mph - N/A   Overcast
7:58 PM 62.6 °F 56.5 °F 80% 30.25 in 10.0 mi ENE 10.4 mph - N/A   Overcast
8:58 PM 61.0 °F 56.3 °F 85% 30.27 in 10.0 mi NE 4.6 mph - N/A   Overcast
9:58 PM 60.1 °F 55.9 °F 86% 30.26 in 10.0 mi NE 6.9 mph - N/A   Overcast
10:18 PM 59.0 °F 55.4 °F 88% 30.26 in 10.0 mi NE 4.6 mph - N/A   Overcast
10:23 PM 59.0 °F 55.4 °F 88% 30.26 in 10.0 mi NE 8.1 mph - N/A   Mostly Cloudy
10:58 PM 57.2 °F 55.0 °F 92% 30.26 in 10.0 mi ENE 4.6 mph - N/A   Clear
11:58 PM 57.0 °F 55.0 °F 93% 30.25 in 10.0 mi ENE 4.6 mph - N/A   Clear